Meteo Giornale » Osservazioni meteo Canada » Comox B C
ore: 23:00 - Osservazioni Meteo Comox B C
Lat. 49° 43' N Lon. 124° 54' W Alt. 24 metri s.l.m.
16 °C
Nuvoloso
Temp. 24 Ore
14 °C
21 °C
Nord
5.5 Km/h
Dew point 12 °C
Umidità 77 %
Visibilità 32 Km
Il sole sorge alle ore 06:34
Il sole tramonta alle ore 20:05
| Data e Ora | Cielo e Fenomeni | T °C | DP °C | Um. % | Pres. hPa | Vis. km | Vento km/h | |
|---|---|---|---|---|---|---|---|---|
| Oggi h: 23:00 | Nuvoloso | 16 | 12 | 77 | 1008 | 32 | N 5.5 | |
| Oggi h: 22:00 | Molto Nuvoloso | 16 | 11 | 72 | 1009 | 32 | N 3.7 | |
| Oggi h: 21:00 | Molto Nuvoloso | 17 | 12 | 72 | 1009 | 32 | N 5.5 | |
| Oggi h: 20:00 | Nuvoloso | 18 | 10 | 59 | 1009 | 32 | N/NO 7.4 | |
| Oggi h: 19:00 | Molto Nuvoloso | 21 | 11 | 52 | 1009 | 32 | N/NO 9.3 | |
| Oggi h: 18:00 | Coperto | 21 | 12 | 56 | 1010 | 32 | NO 11.1 | |
| Oggi h: 17:00 | Coperto | 20 | 10 | 52 | 1011 | 32 | N 7.4 | |
| Oggi h: 16:00 | Coperto | 20 | 11 | 56 | 1011 | 32 | N/NE 9.3 | |
| Oggi h: 15:00 | Coperto | 20 | 12 | 59 | 1012 | 32 | E/NE 11.1 | |
| Oggi h: 14:00 | Molto Nuvoloso | 19 | 12 | 63 | 1012 | 32 | NE 11.1 | |
| Oggi h: 13:00 | Molto Nuvoloso | 18 | 12 | 67 | 1013 | 32 | N 11.1 | |
| Oggi h: 12:00 | Molto Nuvoloso | 19 | 14 | 72 | 1014 | 32 | N 13 | |
| Oggi h: 11:00 | Molto Nuvoloso | 18 | 14 | 77 | 1014 | 32 | N/NE 11.1 | |
| Oggi h: 10:00 | Molto Nuvoloso | 18 | 14 | 77 | 1014 | 32 | N/NE 11.1 | |
| Oggi h: 09:00 | Molto Nuvoloso | 16 | 14 | 87 | 1015 | 32 | N 3.7 | |
| Oggi h: 08:00 | Molto Nuvoloso | 15 | 13 | 87 | 1015 | 32 | N 3.7 | |
| Oggi h: 07:00 | Coperto | 15 | 13 | 87 | 1015 | 32 | N 3.7 | |
| Oggi h: 06:00 | Molto Nuvoloso | 15 | 13 | 87 | 1015 | 32 | N 3.7 | |
| Oggi h: 05:00 | Coperto | 15 | 12 | 82 | 1016 | 32 | N 5.5 | |
| Oggi h: 04:00 | Coperto | 15 | 12 | 82 | 1016 | 32 | NO 7.4 | |
| Oggi h: 03:00 | Coperto | 14 | 12 | 87 | 1016 | 32 | N 3.7 | |
| Oggi h: 02:00 | Coperto | 15 | 12 | 82 | 1017 | 32 | N 0 | |
| Oggi h: 01:00 | Coperto | 14 | 12 | 87 | 1017 | 32 | N 5.5 | |
| Oggi h: 00:00 | Molto Nuvoloso | 14 | 12 | 87 | 1018 | 32 | N 3.7 | |



